Date,TemperatureHighF,TemperatureAvgF,TemperatureLowF,DewpointHighF,DewpointAvgF,DewpointLowF,HumidityHigh,HumidityAvg,HumidityLow,PressureMaxIn,PressureMinIn,WindSpeedMaxMPH,WindSpeedAvgMPH,GustSpeedMaxMPH,PrecipitationSumIn
2013-1-5,34,33,32,26,25,25,78,73,70,30.71,29.20,4,3,4,11.07
2013-1-6,42,38,33,37,30,23,98,76,56,34.79,26.61,17,6,17,0.00
2013-1-7,40,40,40,27,27,27,60,60,60,26.61,26.61,10,10,12,0.00
2013-1-8,40,40,40,27,27,27,60,60,60,26.61,26.61,10,10,12,0.00
2013-1-27,31,31,30,11,9,6,45,40,35,30.52,30.32,13,4,13,0.00
2013-1-28,36,31,24,34,22,9,94,72,45,30.52,30.05,7,0,7,0.20
2013-1-29,40,36,34,37,34,33,95,91,83,30.23,30.03,8,1,8,0.00
2013-1-30,60,53,39,56,51,37,97,93,84,30.17,29.49,25,4,25,0.01
2013-1-31,59,58,58,55,55,54,88,87,87,29.49,29.37,25,7,25,0.00
2013-2-1,31,28,26,18,12,8,61,51,44,30.22,29.81,37,19,37,0.00
2013-2-2,30,26,21,22,12,4,89,56,34,30.34,30.12,33,6,34,0.00
2013-2-3,32,28,24,25,20,17,90,75,60,30.12,29.81,20,3,20,0.01
2013-2-4,30,28,25,24,14,9,81,58,45,30.02,29.81,31,10,31,0.00
2013-2-5,31,28,26,28,24,10,91,82,51,30.04,29.95,11,2,11,0.00
2013-2-6,37,33,29,29,25,12,93,75,48,30.39,29.96,22,7,23,0.02
2013-2-7,33,29,25,23,14,7,72,55,42,30.57,30.38,12,1,12,0.00
2013-2-8,36,33,30,31,26,21,89,77,68,30.42,30.21,13,3,14,0.00
2013-2-9,28,25,22,22,17,13,85,71,64,30.31,29.93,10,7,10,0.00
2013-2-10,38,25,20,20,13,7,78,60,30,30.50,30.31,9,2,9,0.01
2013-2-11,48,39,26,46,37,21,98,93,77,30.40,29.70,14,2,14,1.13
2013-2-12,42,39,36,41,32,27,97,75,59,29.98,29.72,25,10,25,0.00
2013-2-13,37,36,35,30,27,25,77,69,65,29.98,29.94,16,6,18,0.00
2013-2-14,41,35,32,34,29,23,95,80,51,30.05,29.75,10,4,10,0.13
2013-2-15,50,41,33,38,36,31,96,83,59,30.07,29.96,12,7,12,0.00
2013-2-16,41,35,31,38,31,27,93,85,75,29.98,29.73,15,5,15,0.02
2013-2-17,31,27,20,27,15,7,89,62,40,29.91,29.58,45,14,45,0.00
2013-2-18,32,25,20,17,11,8,70,56,42,30.26,29.91,42,14,46,0.01
2013-2-19,49,40,28,45,33,12,95,77,50,30.27,29.68,20,2,20,0.39
2013-2-20,39,32,27,35,21,14,87,64,49,29.97,29.69,39,17,39,0.00
2013-2-21,34,28,26,22,18,14,77,65,55,30.28,29.94,34,14,34,0.00
2013-2-22,40,32,26,28,25,20,83,74,61,30.44,30.27,10,1,10,0.00
2013-2-23,41,37,34,38,34,28,96,89,78,30.33,29.84,15,2,15,0.24
2013-2-24,39,36,33,36,34,30,96,93,85,29.96,29.74,17,3,17,0.02
2013-2-25,44,37,32,32,30,26,88,76,53,30.28,29.96,10,2,11,0.00
2013-2-26,42,38,36,36,32,29,93,81,66,30.36,30.01,15,2,15,0.12
2013-2-27,48,42,37,46,41,35,97,94,83,30.01,29.55,24,5,26,2.20
2013-2-28,46,41,37,42,38,35,94,88,77,29.67,29.58,18,2,18,0.07
2013-3-1,41,38,36,36,34,32,94,86,71,29.78,29.60,14,6,14,0.01
2013-3-2,39,36,34,32,29,27,84,77,66,29.79,29.70,15,4,17,0.00
2013-3-3,36,33,30,29,26,22,83,76,60,29.74,29.67,19,6,20,0.00
2013-3-4,39,34,30,30,25,22,77,71,64,29.87,29.73,27,10,30,0.00
2013-3-5,44,37,32,32,28,25,86,71,50,30.08,29.87,21,3,21,0.00
2013-3-6,41,38,35,36,34,31,90,83,72,30.06,29.90,32,6,32,0.01
2013-3-7,39,35,32,35,33,31,96,92,85,30.05,29.91,12,2,14,0.20
2013-3-8,38,34,32,34,32,31,97,94,80,30.17,29.98,8,2,10,0.71
2013-3-9,50,39,32,33,30,23,91,71,37,30.36,30.16,8,2,8,0.19
2013-3-10,47,38,32,36,33,30,92,81,63,30.44,30.36,8,2,8,0.00
2013-3-11,55,44,34,45,40,32,95,86,65,30.39,30.17,11,1,13,0.00
2013-3-12,56,52,41,53,49,39,96,90,78,30.17,29.73,21,4,22,1.09
2013-3-13,46,40,37,40,35,26,93,81,47,29.90,29.82,17,8,17,0.00
2013-3-14,39,34,30,34,22,14,84,62,48,29.94,29.86,34,13,34,0.00
2013-3-15,43,36,30,34,22,12,81,56,44,29.98,29.76,32,9,32,0.00
2013-3-16,41,37,33,31,26,19,79,66,46,29.92,29.79,24,4,24,0.00
2013-5-6,67,53,44,50,46,41,94,77,53,30.33,30.21,9,5,9,0.00
2013-5-7,75,57,46,60,52,45,96,85,56,30.23,30.15,9,4,9,0.04
2013-5-8,70,60,54,64,58,53,95,91,79,30.18,30.06,14,6,14,0.15
2013-5-9,63,56,50,61,55,49,97,95,87,30.08,29.92,9,4,9,0.31
2013-5-10,76,63,55,59,56,53,94,79,47,30.04,29.97,8,5,8,0.03
2013-5-11,68,61,58,63,58,54,96,90,82,29.96,29.74,17,7,17,0.25
2013-5-12,64,60,56,60,53,40,97,79,47,29.88,29.68,18,10,18,0.02
2013-5-13,54,52,51,42,38,34,64,57,51,29.97,29.93,20,11,20,0.00
2013-5-19,59,57,55,57,53,48,96,89,74,30.40,30.24,11,4,11,0.26
2013-5-20,77,64,58,68,61,57,97,91,71,30.23,30.01,10,5,10,0.07
2013-5-21,84,71,62,71,65,61,97,83,60,30.01,29.89,12,6,12,0.03
2013-5-22,71,63,55,67,60,54,96,90,77,30.00,29.90,13,5,13,0.07
2013-5-23,76,67,64,70,64,62,96,92,78,29.98,29.85,18,10,18,0.48
2013-5-24,65,59,49,63,57,48,97,94,88,29.90,29.71,16,7,16,0.24
2013-5-25,50,48,47,47,45,43,97,90,79,29.93,29.85,29,14,29,0.14
2013-5-26,61,54,48,48,44,42,84,72,56,30.22,29.91,26,8,26,0.11
2013-5-27,73,59,48,50,43,36,86,57,34,30.26,30.17,15,3,16,0.08
2013-5-28,72,59,51,57,53,48,96,83,47,30.27,30.19,7,1,9,0.32
2013-5-29,76,64,57,68,61,56,97,89,73,30.19,30.04,11,1,11,0.16
2013-5-30,90,74,63,69,65,61,94,74,45,30.16,30.09,14,2,14,0.13
2013-5-31,92,76,67,72,66,62,85,70,47,30.16,30.03,11,1,11,0.31
2013-6-1,87,76,66,71,66,63,91,75,56,30.06,29.96,11,2,13,0.14
2013-6-2,83,72,65,70,65,62,94,80,63,29.98,29.84,16,2,16,0.27
2013-6-3,76,68,63,71,65,62,96,93,82,29.90,29.83,13,1,16,0.83
2013-6-4,73,63,56,62,50,45,92,64,43,30.13,29.88,11,2,12,0.04
2013-6-5,75,65,55,57,52,44,90,65,35,30.25,30.13,8,1,8,0.25
2013-6-6,74,64,54,63,56,49,96,77,44,30.21,30.07,8,1,8,0.10
2013-6-7,61,60,58,60,58,55,97,94,90,30.08,29.81,13,1,13,0.00
2013-6-12,69,66,63,59,58,54,83,76,65,29.89,29.69,21,11,21,0.08
2013-6-13,64,60,56,59,56,52,95,86,70,29.87,29.54,20,6,20,0.15
2013-6-14,69,61,54,59,56,53,97,84,63,29.87,29.55,20,8,20,0.51
2013-6-15,79,67,61,60,58,50,91,74,38,30.02,29.88,12,8,12,0.09
2013-6-16,80,70,61,67,61,54,92,73,46,30.01,29.81,15,6,15,0.16
2013-6-17,84,72,66,73,66,62,94,82,60,29.96,29.87,20,5,20,0.18
2013-6-18,81,68,61,70,65,60,96,90,69,29.95,29.86,10,3,10,0.07
2013-6-19,76,67,60,64,58,50,96,76,41,30.20,29.90,9,1,9,0.09
2013-6-20,79,68,60,64,57,52,85,68,50,30.31,30.20,10,1,10,0.20
2013-6-21,82,69,58,64,57,53,89,68,46,30.34,30.28,10,1,10,0.10
2013-6-22,81,70,58,67,61,55,95,76,48,30.31,30.19,6,1,7,0.16
2013-6-23,86,75,63,73,67,60,95,78,56,30.23,30.11,11,2,12,0.16
2013-6-24,91,78,70,76,71,65,96,79,52,30.12,29.97,12,2,14,0.03
2013-6-25,90,78,69,74,69,64,86,74,54,30.03,29.82,14,2,14,0.01
2013-6-26,83,77,73,72,69,67,90,76,64,29.87,29.79,12,2,13,0.00
2013-6-27,83,74,69,74,70,68,96,88,72,29.87,29.67,8,1,9,0.00
2013-6-28,84,76,71,75,72,70,96,86,69,29.67,29.54,11,2,12,0.01
2013-6-29,82,74,69,73,70,68,96,87,68,29.76,29.53,11,1,12,0.03
2013-6-30,84,74,70,76,71,68,97,91,75,29.98,29.75,11,1,11,0.00
2013-7-1,79,74,72,76,73,71,97,95,88,30.12,29.97,10,1,10,0.08
2013-7-2,74,74,73,72,72,72,96,95,95,30.16,30.12,10,1,10,0.00
2013-11-1,68,64,60,63,60,57,95,89,80,29.90,29.60,23,13,23,0.12
2013-11-2,63,59,55,59,52,46,95,79,66,29.78,29.66,13,5,13,0.00
2013-11-3,58,49,39,48,39,30,85,70,55,30.44,29.78,11,5,11,0.04
2013-11-4,45,39,36,29,26,22,73,61,41,30.71,30.46,14,6,14,0.00
2013-11-5,54,46,40,41,36,30,85,70,54,30.72,30.56,8,4,8,0.00
2013-11-6,62,52,45,55,47,41,95,83,60,30.56,30.13,10,4,10,0.13
2013-11-7,64,52,46,61,48,38,97,86,74,30.12,29.78,16,6,16,20.49
2013-11-8,49,46,43,39,34,30,76,65,50,30.21,29.92,27,9,27,0.12
2013-11-9,48,44,40,38,32,26,71,63,47,30.31,30.07,18,3,18,0.00
2013-11-10,58,51,46,45,39,35,76,64,48,30.07,29.80,37,9,37,0.00
2013-11-11,52,49,46,41,35,27,68,58,41,30.20,30.00,32,7,32,0.00
2013-11-12,51,40,33,41,31,24,95,72,56,30.27,29.94,16,4,23,0.05
2013-11-13,39,34,30,26,23,18,77,64,47,30.37,30.26,18,5,18,0.00
2013-11-14,32,31,30,22,20,18,67,63,59,30.30,30.24,11,3,11,0.00
2013-11-28,38,33,31,33,20,14,80,59,46,30.51,29.68,65,35,65,0.00
2013-11-29,60,34,29,39,20,14,80,57,37,30.76,30.51,86,16,86,0.21
2013-11-30,37,31,26,30,19,12,75,62,50,30.80,30.45,30,10,30,0.00
2013-12-1,46,43,38,44,40,31,96,91,76,30.43,30.06,11,4,11,0.06
2013-12-2,42,40,38,40,38,36,96,92,85,30.05,29.93,10,5,10,0.00
2013-12-3,47,42,38,41,38,36,94,85,67,30.04,29.91,17,10,17,0.00
2013-12-4,45,43,40,43,36,34,94,79,72,30.20,30.03,14,6,14,0.00
2013-12-5,64,55,45,59,53,44,97,93,82,30.19,29.99,11,1,12,0.00
2013-12-6,58,48,39,58,47,38,98,96,90,30.17,29.93,15,2,15,0.43
2013-12-7,41,38,36,38,35,31,97,90,74,30.33,30.11,11,2,12,0.24
2013-12-11,34,31,27,23,18,15,67,60,51,30.34,30.12,31,16,31,0.00
2013-12-12,32,26,21,23,15,8,75,63,51,30.36,30.19,29,12,29,0.00
2013-12-13,35,30,22,24,16,6,76,56,48,30.38,30.14,30,19,30,0.00
2013-12-14,38,26,22,38,23,18,97,87,71,30.57,29.98,21,11,21,0.00
2013-12-15,43,37,32,42,33,26,98,87,67,29.93,29.47,33,18,33,1.91
2013-12-16,34,30,25,25,17,12,69,59,52,30.26,29.84,31,19,31,0.00
2013-12-17,35,28,22,34,26,11,96,92,58,30.28,29.94,14,2,14,0.19
2013-12-18,36,30,24,27,24,22,95,80,61,30.20,29.92,20,5,21,0.00
2013-12-19,46,35,26,34,26,20,81,69,47,30.21,30.06,18,4,18,0.04
2013-12-20,52,46,40,46,38,30,93,74,56,30.16,30.01,13,2,14,0.00
2013-12-21,59,52,46,55,49,45,96,88,73,30.06,29.95,18,3,18,0.18
2013-12-22,62,59,57,58,56,52,97,90,78,30.02,29.87,23,5,28,0.43
2013-12-23,58,52,40,56,51,38,98,95,91,30.15,29.92,11,2,11,0.60
2013-12-24,40,35,30,39,28,21,95,76,61,30.32,30.09,20,3,20,0.00
2013-12-25,30,24,22,23,15,10,76,67,52,30.58,30.31,21,3,21,0.00
2013-12-26,39,33,26,35,28,19,88,80,74,30.49,30.18,18,4,22,0.00
2013-12-27,38,36,32,30,26,21,79,67,52,30.37,30.29,22,9,22,0.00
2013-12-28,53,42,31,38,31,24,86,67,42,30.32,30.10,23,4,23,0.65
2013-12-29,55,44,41,54,40,32,98,85,59,30.11,29.38,19,4,20,1.60
2013-12-30,43,36,22,39,31,14,94,81,68,30.22,29.68,19,5,20,0.36
2013-12-31,33,25,19,26,16,11,76,69,52,30.28,30.10,29,5,29,0.04
2014-1-1,31,28,22,23,17,11,70,63,55,30.45,30.28,24,5,24,0.04
2014-1-2,32,29,28,27,25,21,93,84,67,30.33,30.15,23,6,23,0.00